Zurück zum Katalog

STARLINK-11545

AktivKommunikationVLEO
NORAD 63016·PAYLOAD·🇺🇸 United States

Gestartet Feb 15, 2025 von Cape Canaveral Space Force Station

Loading…

Nächste Überflüge (nächste 24 Stunden)

TLE

AktuellSource: CelesTrak SupGP

Epoche: Sep 15, 2026, 03:19 UTC

1 63016C 25032M   26258.13868056  .00106720  00000+0  82854-3 0  2581
2 63016  43.0003 133.2612 0001616 275.4039 342.3944 15.70796186    10

Verfolge STARLINK-11545 in Echtzeit mit AllMySat

Download on the App Store